14-04-2022, 00:00:09,    226,    0.0,    8.0,   0.00,   0.00, 1016.3,   87.2, -999.0
14-04-2022, 00:00:19,    226,    0.0,    8.0,   0.00,   0.00, 1016.2,   87.1, -999.0
14-04-2022, 00:00:29,    226,    0.0,    8.0,   0.00,   0.00, 1016.3,   87.2, -999.0
14-04-2022, 00:00:38,    226,    0.0,    8.0,   0.00,   0.00, 1016.3,   87.2, -999.0
14-04-2022, 00:00:49,    227,    0.0,    7.9,   0.00,   0.00, 1016.3,   87.2, -999.0
14-04-2022, 00:00:59,    226,    0.0,    8.0,   0.00,   0.00, 1016.3,   87.2, -999.0
14-04-2022, 00:01:08,    226,    0.0,    8.0,   0.00,   0.00, 1016.3,   87.2, -999.0
14-04-2022, 00:01:19,    226,    0.0,    7.9,   0.00,   0.00, 1016.2,   87.2, -999.0
14-04-2022, 00:01:28,    226,    0.0,    8.0,   0.00,   0.00, 1016.3,   87.3, -999.0
14-04-2022, 00:01:38,    226,    0.0,    8.0,   0.00,   0.00, 1016.3,   87.2, -999.0
14-04-2022, 00:01:48,    226,    0.0,    7.9,   0.00,   0.00, 1016.3,   87.2, -999.0
14-04-2022, 00:01:58,    226,    0.0,    7.9,   0.00,   0.00, 1016.2,   87.1, -999.0
14-04-2022, 00:02:08,    226,    0.0,    7.9,   0.00,   0.00, 1016.3,   87.1, -999.0
14-04-2022, 00:02:18,    226,    0.0,    7.9,   0.00,   0.00, 1016.2,   87.1, -999.0
14-04-2022, 00:02:28,    226,    0.0,    8.0,   0.00,   0.00, 1016.3,   87.3, -999.0
14-04-2022, 00:02:38,    226,    0.0,    7.9,   0.00,   0.00, 1016.3,   87.2, -999.0
14-04-2022, 00:02:48,    226,    0.0,    7.9,   0.00,   0.00, 1016.2,   87.2, -999.0
14-04-2022, 00:02:58,    226,    0.0,    8.0,   0.00,   0.00, 1016.3,   87.3, -999.0
14-04-2022, 00:03:08,    227,    0.0,    7.9,   0.00,   0.00, 1016.3,   87.2, -999.0
14-04-2022, 00:03:18,    227,    0.0,    7.8,   0.00,   0.00, 1016.2,   87.3, -999.0
14-04-2022, 00:03:28,    228,    0.0,    8.0,   0.00,   0.00, 1016.2,   87.5, -999.0
14-04-2022, 00:03:38,    228,    0.0,    8.0,   0.00,   0.00, 1016.2,   87.4, -999.0
14-04-2022, 00:03:48,    228,    0.0,    8.0,   0.00,   0.00, 1016.2,   87.4, -999.0
14-04-2022, 00:03:58,    229,    0.0,    8.0,   0.00,   0.00, 1016.2,   87.4, -999.0
14-04-2022, 00:04:08,    229,    0.0,    8.0,   0.00,   0.00, 1016.2,   87.4, -999.0
14-04-2022, 00:04:17,    229,    0.0,    8.0,   0.00,   0.00, 1016.2,   87.4, -999.0
14-04-2022, 00:04:28,    229,    0.0,    8.0,   0.00,   0.00, 1016.2,   87.4, -999.0
14-04-2022, 00:04:38,    229,    0.0,    8.0,   0.00,   0.00, 1016.2,   87.3, -999.0
14-04-2022, 00:04:47,    229,    0.0,    8.0,   0.00,   0.00, 1016.2,   87.3, -999.0
14-04-2022, 00:04:57,    229,    0.0,    8.0,   0.00,   0.00, 1016.2,   87.4, -999.0
14-04-2022, 00:05:07,    229,    0.0,    8.0,   0.00,   0.00, 1016.3,   87.3, -999.0
14-04-2022, 00:05:17,    229,    0.0,    8.0,   0.00,   0.00, 1016.2,   87.3, -999.0
14-04-2022, 00:05:27,    229,    0.0,    8.0,   0.00,   0.00, 1016.2,   87.3, -999.0
14-04-2022, 00:05:37,    229,    0.0,    8.0,   0.00,   0.00, 1016.2,   87.3, -999.0
14-04-2022, 00:05:47,    229,    0.0,    7.9,   0.00,   0.00, 1016.2,   87.4, -999.0
14-04-2022, 00:05:57,    229,    0.0,    8.0,   0.00,   0.00, 1016.2,   87.3, -999.0
14-04-2022, 00:06:07,    229,    0.0,    7.9,   0.00,   0.00, 1016.2,   87.4, -999.0
14-04-2022, 00:06:17,    229,    0.0,    7.9,   0.00,   0.00, 1016.2,   87.2, -999.0
14-04-2022, 00:06:27,    229,    0.0,    7.9,   0.00,   0.00, 1016.2,   87.4, -999.0
14-04-2022, 00:06:37,    229,    0.0,    7.9,   0.00,   0.00, 1016.2,   87.3, -999.0
14-04-2022, 00:06:47,    229,    0.0,    7.9,   0.00,   0.00, 1016.2,   87.3, -999.0
14-04-2022, 00:06:57,    229,    0.0,    8.0,   0.00,   0.00, 1016.2,   87.2, -999.0
14-04-2022, 00:07:07,    229,    0.0,    7.9,   0.00,   0.00, 1016.2,   87.3, -999.0
14-04-2022, 00:07:17,    229,    0.0,    7.9,   0.00,   0.00, 1016.2,   87.3, -999.0
14-04-2022, 00:07:26,    229,    0.0,    7.9,   0.00,   0.00, 1016.2,   87.3, -999.0
14-04-2022, 00:07:37,    229,    0.0,    7.9,   0.00,   0.00, 1016.2,   87.3, -999.0
14-04-2022, 00:07:47,    229,    0.0,    7.9,   0.00,   0.00, 1016.2,   87.4, -999.0
14-04-2022, 00:07:56,    230,    0.0,    7.9,   0.00,   0.00, 1016.2,   87.2, -999.0
14-04-2022, 00:08:07,    229,    0.0,    7.9,   0.00,   0.00, 1016.2,   87.3, -999.0
14-04-2022, 00:08:16,    229,    0.0,    7.9,   0.00,   0.00, 1016.2,   87.3, -999.0
14-04-2022, 00:08:26,    229,    0.0,    7.9,   0.00,   0.00, 1016.2,   87.2, -999.0
14-04-2022, 00:08:36,    229,    0.0,    7.9,   0.00,   0.00, 1016.2,   87.3, -999.0
14-04-2022, 00:08:46,    229,    0.0,    7.9,   0.00,   0.00, 1016.2,   87.2, -999.0
14-04-2022, 00:08:56,    229,    0.0,    7.8,   0.00,   0.00, 1016.2,   87.3, -999.0
14-04-2022, 00:09:06,    229,    0.0,    7.9,   0.00,   0.00, 1016.2,   87.3, -999.0
14-04-2022, 00:09:16,    226,    0.0,    7.9,   0.00,   0.00, 1016.2,   87.2, -999.0
14-04-2022, 00:09:26,    229,    0.0,    7.8,   0.00,   0.00, 1016.2,   87.2, -999.0
14-04-2022, 00:09:36,    229,    0.0,    7.8,   0.00,   0.00, 1016.2,   87.3, -999.0
14-04-2022, 00:09:46,    229,    0.0,    7.9,   0.00,   0.00, 1016.2,   87.2, -999.0
14-04-2022, 00:09:56,    229,    0.0,    7.8,   0.00,   0.00, 1016.2,   87.3, -999.0
14-04-2022, 00:10:06,    229,    0.0,    7.8,   0.00,   0.00, 1016.2,   87.2, -999.0
14-04-2022, 00:10:16,    229,    0.0,    7.8,   0.00,   0.00, 1016.2,   87.2, -999.0
14-04-2022, 00:10:26,    229,    0.0,    7.9,   0.00,   0.00, 1016.2,   87.3, -999.0
14-04-2022, 00:10:36,    229,    0.0,    7.8,   0.00,   0.00, 1016.2,   87.4, -999.0
14-04-2022, 00:10:46,    229,    0.0,    7.9,   0.00,   0.00, 1016.2,   87.5, -999.0
14-04-2022, 00:10:56,    229,    0.0,    7.9,   0.00,   0.00, 1016.3,   87.4, -999.0
14-04-2022, 00:11:05,    229,    0.0,    7.8,   0.00,   0.00, 1016.2,   87.5, -999.0
14-04-2022, 00:11:16,    229,    0.0,    7.9,   0.00,   0.00, 1016.2,   87.5, -999.0
14-04-2022, 00:11:26,    229,    0.0,    7.9,   0.00,   0.00, 1016.3,   87.4, -999.0
14-04-2022, 00:11:35,    229,    0.0,    7.8,   0.00,   0.00, 1016.2,   87.5, -999.0
14-04-2022, 00:11:46,    229,    0.0,    7.9,   0.00,   0.00, 1016.3,   87.5, -999.0
14-04-2022, 00:11:55,    229,    0.0,    7.9,   0.00,   0.00, 1016.3,   87.7, -999.0
14-04-2022, 00:12:05,    229,    0.0,    7.9,   0.00,   0.00, 1016.2,   87.7, -999.0
14-04-2022, 00:12:15,    229,    0.0,    7.8,   0.00,   0.00, 1016.3,   87.7, -999.0
14-04-2022, 00:12:25,    229,    0.0,    7.9,   0.00,   0.00, 1016.2,   87.6, -999.0
14-04-2022, 00:12:35,    229,    0.0,    7.9,   0.00,   0.00, 1016.3,   87.7, -999.0
14-04-2022, 00:12:45,    229,    0.0,    7.9,   0.00,   0.00, 1016.3,   87.7, -999.0
14-04-2022, 00:12:55,    229,    0.0,    7.9,   0.00,   0.00, 1016.3,   87.5, -999.0
14-04-2022, 00:13:05,    229,    0.0,    7.9,   0.00,   0.00, 1016.3,   87.5, -999.0
14-04-2022, 00:13:15,    229,    0.0,    7.9,   0.00,   0.00, 1016.3,   87.6, -999.0
14-04-2022, 00:13:25,    230,    0.0,    7.8,   0.00,   0.00, 1016.3,   87.6, -999.0
14-04-2022, 00:13:35,    229,    0.0,    7.9,   0.00,   0.00, 1016.3,   87.6, -999.0
14-04-2022, 00:13:45,    229,    0.0,    7.8,   0.00,   0.00, 1016.2,   87.5, -999.0
14-04-2022, 00:13:55,    229,    0.0,    7.8,   0.00,   0.00, 1016.3,   87.5, -999.0
14-04-2022, 00:14:05,    229,    0.0,    7.8,   0.00,   0.00, 1016.3,   87.5, -999.0
14-04-2022, 00:14:14,    230,    0.0,    7.9,   0.00,   0.00, 1016.3,   87.5, -999.0
14-04-2022, 00:14:25,    230,    0.0,    7.8,   0.00,   0.00, 1016.2,   87.6, -999.0
14-04-2022, 00:14:35,    230,    0.0,    7.8,   0.00,   0.00, 1016.3,   87.7, -999.0
14-04-2022, 00:14:44,    231,    0.0,    7.8,   0.00,   0.00, 1016.3,   87.5, -999.0
14-04-2022, 00:14:55,    230,    0.0,    7.8,   0.00,   0.00, 1016.3,   87.6, -999.0
14-04-2022, 00:15:04,    230,    0.0,    7.8,   0.00,   0.00, 1016.3,   87.6, -999.0
14-04-2022, 00:15:14,    230,    0.0,    7.8,   0.00,   0.00, 1016.3,   87.6, -999.0
14-04-2022, 00:15:24,    230,    0.0,    7.7,   0.00,   0.00, 1016.3,   87.6, -999.0
14-04-2022, 00:15:34,    230,    0.0,    7.7,   0.00,   0.00, 1016.3,   87.7, -999.0
14-04-2022, 00:15:44,    230,    0.0,    7.7,   0.00,   0.00, 1016.3,   87.7, -999.0
14-04-2022, 00:15:54,    230,    0.0,    7.8,   0.00,   0.00, 1016.3,   87.6, -999.0
14-04-2022, 00:16:04,    230,    0.0,    7.8,   0.00,   0.00, 1016.3,   87.7, -999.0
14-04-2022, 00:16:14,    230,    0.0,    7.8,   0.00,   0.00, 1016.3,   87.8, -999.0
14-04-2022, 00:16:24,    230,    0.0,    7.8,   0.00,   0.00, 1016.3,   87.8, -999.0
14-04-2022, 00:16:34,    230,    0.0,    7.8,   0.00,   0.00, 1016.3,   87.7, -999.0
14-04-2022, 00:16:44,    230,    0.0,    7.8,   0.00,   0.00, 1016.3,   87.7, -999.0
14-04-2022, 00:16:54,    230,    0.0,    7.8,   0.00,   0.00, 1016.3,   87.7, -999.0
14-04-2022, 00:17:04,    230,    0.0,    7.8,   0.00,   0.00, 1016.3,   87.8, -999.0
14-04-2022, 00:17:14,    230,    0.0,    7.8,   0.00,   0.00, 1016.3,   87.8, -999.0
14-04-2022, 00:17:24,    230,    0.0,    7.7,   0.00,   0.00, 1016.3,   87.7, -999.0
14-04-2022, 00:17:34,    230,    0.0,    7.7,   0.00,   0.00, 1016.3,   87.8, -999.0
14-04-2022, 00:17:44,    230,    0.0,    7.8,   0.00,   0.00, 1016.3,   87.8, -999.0
14-04-2022, 00:17:53,    231,    0.0,    7.8,   0.00,   0.00, 1016.3,   87.8, -999.0
14-04-2022, 00:18:04,    230,    0.0,    7.8,   0.00,   0.00, 1016.3,   87.8, -999.0
14-04-2022, 00:18:14,    231,    0.0,    7.7,   0.00,   0.00, 1016.3,   87.9, -999.0
14-04-2022, 00:18:23,    231,    0.0,    7.7,   0.00,   0.00, 1016.3,   87.9, -999.0
14-04-2022, 00:18:33,    230,    0.0,    7.8,   0.00,   0.00, 1016.3,   87.9, -999.0
14-04-2022, 00:18:43,    230,    0.0,    7.8,   0.00,   0.00, 1016.3,   87.9, -999.0
14-04-2022, 00:18:53,    231,    0.0,    7.8,   0.00,   0.00, 1016.3,   87.9, -999.0
14-04-2022, 00:19:03,    230,    0.0,    7.8,   0.00,   0.00, 1016.3,   87.9, -999.0
14-04-2022, 00:19:13,    230,    0.0,    7.7,   0.00,   0.00, 1016.3,   87.9, -999.0
14-04-2022, 00:19:23,    230,    0.0,    7.7,   0.00,   0.00, 1016.3,   87.8, -999.0
14-04-2022, 00:19:33,    230,    0.0,    7.8,   0.00,   0.00, 1016.3,   87.8, -999.0
14-04-2022, 00:19:43,    230,    0.0,    7.8,   0.00,   0.00, 1016.3,   88.0, -999.0
14-04-2022, 00:19:53,    230,    0.0,    7.8,   0.00,   0.00, 1016.3,   87.9, -999.0
14-04-2022, 00:20:03,    231,    0.0,    7.8,   0.00,   0.00, 1016.3,   87.9, -999.0
14-04-2022, 00:20:13,    231,    0.0,    7.8,   0.00,   0.00, 1016.3,   87.9, -999.0
14-04-2022, 00:20:23,    231,    0.0,    7.7,   0.00,   0.00, 1016.3,   87.9, -999.0
14-04-2022, 00:20:33,    231,    0.0,    7.7,   0.00,   0.00, 1016.3,   87.9, -999.0
14-04-2022, 00:20:43,    231,    0.0,    7.7,   0.00,   0.00, 1016.3,   87.9, -999.0
14-04-2022, 00:20:53,    231,    0.0,    7.7,   0.00,   0.00, 1016.3,   87.9, -999.0
14-04-2022, 00:21:02,    231,    0.0,    7.7,   0.00,   0.00, 1016.3,   88.0, -999.0
14-04-2022, 00:21:13,    232,    0.0,    7.7,   0.00,   0.00, 1016.3,   87.9, -999.0
14-04-2022, 00:21:23,    232,    0.0,    7.7,   0.00,   0.00, 1016.3,   87.9, -999.0
14-04-2022, 00:21:32,    232,    0.0,    7.7,   0.00,   0.00, 1016.3,   87.9, -999.0
14-04-2022, 00:21:43,    232,    0.0,    7.7,   0.00,   0.00, 1016.3,   88.0, -999.0
14-04-2022, 00:21:53,    232,    0.0,    7.7,   0.00,   0.00, 1016.3,   88.0, -999.0
14-04-2022, 00:22:02,    232,    0.0,    7.7,   0.00,   0.00, 1016.3,   88.1, -999.0
14-04-2022, 00:22:12,    231,    0.0,    7.7,   0.00,   0.00, 1016.3,   88.0, -999.0
14-04-2022, 00:22:22,    231,    0.0,    7.6,   0.00,   0.00, 1016.3,   88.0, -999.0
14-04-2022, 00:22:32,    232,    0.0,    7.7,   0.00,   0.00, 1016.3,   88.0, -999.0
14-04-2022, 00:22:42,    232,    0.0,    7.6,   0.00,   0.00, 1016.3,   87.9, -999.0
14-04-2022, 00:22:52,    231,    0.0,    7.6,   0.00,   0.00, 1016.3,   88.0, -999.0
14-04-2022, 00:23:02,    231,    0.0,    7.6,   0.00,   0.00, 1016.3,   88.0, -999.0
14-04-2022, 00:23:12,    232,    0.0,    7.6,   0.00,   0.00, 1016.3,   88.0, -999.0
14-04-2022, 00:23:22,    231,    0.0,    7.7,   0.00,   0.00, 1016.3,   88.0, -999.0
14-04-2022, 00:23:32,    232,    0.0,    7.7,   0.00,   0.00, 1016.3,   88.1, -999.0
14-04-2022, 00:23:42,    232,    0.0,    7.7,   0.00,   0.00, 1016.3,   88.2, -999.0
14-04-2022, 00:23:52,    231,    0.0,    7.7,   0.00,   0.00, 1016.3,   88.1, -999.0
14-04-2022, 00:24:02,    232,    0.0,    7.7,   0.00,   0.00, 1016.3,   88.2, -999.0
14-04-2022, 00:24:12,    232,    0.0,    7.6,   0.00,   0.00, 1016.3,   88.2, -999.0
14-04-2022, 00:24:22,    232,    0.0,    7.6,   0.00,   0.00, 1016.3,   88.2, -999.0
14-04-2022, 00:24:32,    232,    0.0,    7.7,   0.00,   0.00, 1016.3,   88.2, -999.0
14-04-2022, 00:24:41,    232,    0.0,    7.6,   0.00,   0.00, 1016.3,   88.2, -999.0
14-04-2022, 00:24:52,    232,    0.0,    7.7,   0.00,   0.00, 1016.2,   88.2, -999.0
14-04-2022, 00:25:02,    232,    0.0,    7.7,   0.00,   0.00, 1016.3,   88.3, -999.0
14-04-2022, 00:25:11,    232,    0.0,    7.6,   0.00,   0.00, 1016.3,   88.2, -999.0
14-04-2022, 00:25:21,    232,    0.0,    7.7,   0.00,   0.00, 1016.3,   88.3, -999.0
14-04-2022, 00:25:31,    231,    0.0,    7.6,   0.00,   0.00, 1016.3,   88.3, -999.0
14-04-2022, 00:25:41,    232,    0.0,    7.6,   0.00,   0.00, 1016.3,   88.2, -999.0
14-04-2022, 00:25:51,    232,    0.0,    7.7,   0.00,   0.00, 1016.3,   88.3, -999.0
14-04-2022, 00:26:01,    232,    0.0,    7.6,   0.00,   0.00, 1016.2,   88.3, -999.0
14-04-2022, 00:26:11,    232,    0.0,    7.6,   0.00,   0.00, 1016.3,   88.4, -999.0
14-04-2022, 00:26:21,    232,    0.0,    7.6,   0.00,   0.00, 1016.3,   88.2, -999.0
14-04-2022, 00:26:31,    232,    0.0,    7.6,   0.00,   0.00, 1016.3,   88.3, -999.0
14-04-2022, 00:26:41,    232,    0.0,    7.5,   0.00,   0.00, 1016.3,   88.4, -999.0
14-04-2022, 00:26:51,    232,    0.0,    7.6,   0.00,   0.00, 1016.3,   88.3, -999.0
14-04-2022, 00:27:01,    232,    0.0,    7.6,   0.00,   0.00, 1016.3,   88.3, -999.0
14-04-2022, 00:27:11,    232,    0.0,    7.6,   0.00,   0.00, 1016.3,   88.3, -999.0
14-04-2022, 00:27:21,    232,    0.0,    7.6,   0.00,   0.00, 1016.3,   88.3, -999.0
14-04-2022, 00:27:31,    232,    0.0,    7.6,   0.00,   0.00, 1016.3,   88.2, -999.0
14-04-2022, 00:27:41,    232,    0.0,    7.6,   0.00,   0.00, 1016.3,   88.3, -999.0
14-04-2022, 00:27:50,    232,    0.0,    7.6,   0.00,   0.00, 1016.3,   88.3, -999.0
14-04-2022, 00:28:01,    232,    0.0,    7.5,   0.00,   0.00, 1016.3,   88.3, -999.0
14-04-2022, 00:28:11,    232,    0.0,    7.5,   0.00,   0.00, 1016.3,   88.3, -999.0
14-04-2022, 00:28:20,    232,    0.0,    7.6,   0.00,   0.00, 1016.3,   88.3, -999.0
14-04-2022, 00:28:31,    232,    0.0,    7.5,   0.00,   0.00, 1016.3,   88.4, -999.0
14-04-2022, 00:28:41,    232,    0.0,    7.6,   0.00,   0.00, 1016.3,   88.4, -999.0
14-04-2022, 00:28:50,    232,    0.0,    7.6,   0.00,   0.00, 1016.3,   88.4, -999.0
14-04-2022, 00:29:00,    232,    0.0,    7.5,   0.00,   0.00, 1016.3,   88.5, -999.0
14-04-2022, 00:29:10,    232,    0.0,    7.5,   0.00,   0.00, 1016.3,   88.5, -999.0
14-04-2022, 00:29:20,    232,    0.0,    7.5,   0.00,   0.00, 1016.3,   88.5, -999.0
14-04-2022, 00:29:30,    231,    0.0,    7.5,   0.00,   0.00, 1016.3,   88.5, -999.0
14-04-2022, 00:29:40,    232,    0.0,    7.6,   0.00,   0.00, 1016.3,   88.7, -999.0
14-04-2022, 00:29:50,    232,    0.0,    7.6,   0.00,   0.00, 1016.3,   88.6, -999.0
14-04-2022, 00:30:00,    232,    0.0,    7.6,   0.00,   0.00, 1016.3,   88.6, -999.0
14-04-2022, 00:30:10,    232,    0.0,    7.6,   0.00,   0.00, 1016.3,   88.6, -999.0
14-04-2022, 00:30:20,    233,    0.0,    7.6,   0.00,   0.00, 1016.3,   88.7, -999.0
14-04-2022, 00:30:30,    232,    0.0,    7.6,   0.00,   0.00, 1016.3,   88.7, -999.0
14-04-2022, 00:30:40,    232,    0.0,    7.6,   0.00,   0.00, 1016.3,   88.7, -999.0
14-04-2022, 00:30:50,    232,    0.0,    7.6,   0.00,   0.00, 1016.3,   88.7, -999.0
14-04-2022, 00:31:00,    232,    0.0,    7.6,   0.00,   0.00, 1016.3,   88.7, -999.0
14-04-2022, 00:31:10,    232,    0.0,    7.6,   0.00,   0.00, 1016.3,   88.7, -999.0
14-04-2022, 00:31:20,    232,    0.0,    7.6,   0.00,   0.00, 1016.3,   88.7, -999.0
14-04-2022, 00:31:29,    235,    0.0,    7.6,   0.00,   0.00, 1016.3,   88.8, -999.0
14-04-2022, 00:31:40,    236,    0.0,    7.6,   0.00,   0.00, 1016.3,   88.9, -999.0
14-04-2022, 00:31:50,    232,    0.0,    7.6,   0.00,   0.00, 1016.3,   88.7, -999.0
14-04-2022, 00:31:59,    232,    0.0,    7.6,   0.00,   0.00, 1016.3,   88.8, -999.0
14-04-2022, 00:32:09,    232,    0.0,    7.6,   0.00,   0.00, 1016.3,   88.7, -999.0
14-04-2022, 00:32:20,    232,    0.0,    7.6,   0.00,   0.00, 1016.3,   88.8, -999.0
14-04-2022, 00:32:29,    232,    0.0,    7.6,   0.00,   0.00, 1016.3,   88.9, -999.0
14-04-2022, 00:32:39,    232,    0.0,    7.6,   0.00,   0.00, 1016.3,   88.7, -999.0
14-04-2022, 00:32:49,    231,    0.0,    7.6,   0.00,   0.00, 1016.3,   88.9, -999.0
14-04-2022, 00:32:59,    232,    0.0,    7.6,   0.00,   0.00, 1016.3,   89.0, -999.0
14-04-2022, 00:33:09,    232,    0.0,    7.6,   0.00,   0.00, 1016.4,   89.0, -999.0
14-04-2022, 00:33:19,    232,    0.0,    7.6,   0.00,   0.00, 1016.4,   89.1, -999.0
14-04-2022, 00:33:29,    232,    0.0,    7.6,   0.00,   0.00, 1016.4,   89.0, -999.0
14-04-2022, 00:33:39,    232,    0.0,    7.6,   0.00,   0.00, 1016.3,   89.1, -999.0
14-04-2022, 00:33:49,    234,    0.0,    7.6,   0.00,   0.00, 1016.3,   88.9, -999.0
14-04-2022, 00:33:59,    232,    0.0,    7.6,   0.00,   0.00, 1016.3,   89.0, -999.0
14-04-2022, 00:34:09,    233,    0.0,    7.6,   0.00,   0.00, 1016.3,   89.0, -999.0
14-04-2022, 00:34:19,    232,    0.0,    7.6,   0.00,   0.00, 1016.3,   89.0, -999.0
14-04-2022, 00:34:29,    232,    0.0,    7.6,   0.00,   0.00, 1016.4,   89.1, -999.0
14-04-2022, 00:34:38,    232,    0.0,    7.6,   0.00,   0.00, 1016.3,   89.1, -999.0
14-04-2022, 00:34:49,    232,    0.0,    7.6,   0.00,   0.00, 1016.3,   89.0, -999.0
14-04-2022, 00:34:59,    233,    0.0,    7.6,   0.00,   0.00, 1016.3,   89.1, -999.0
14-04-2022, 00:35:08,    232,    0.0,    7.6,   0.00,   0.00, 1016.3,   89.1, -999.0
14-04-2022, 00:35:18,    232,    0.0,    7.6,   0.00,   0.00, 1016.3,   89.1, -999.0
14-04-2022, 00:35:29,    232,    0.0,    7.5,   0.00,   0.00, 1016.3,   89.1, -999.0
14-04-2022, 00:35:38,    232,    0.0,    7.5,   0.00,   0.00, 1016.4,   89.0, -999.0
14-04-2022, 00:35:48,    233,    0.0,    7.6,   0.00,   0.00, 1016.3,   89.1, -999.0
14-04-2022, 00:35:59,    232,    0.0,    7.6,   0.00,   0.00, 1016.3,   89.1, -999.0
14-04-2022, 00:36:08,    232,    0.0,    7.6,   0.00,   0.00, 1016.3,   89.2, -999.0
14-04-2022, 00:36:18,    232,    0.0,    7.6,   0.00,   0.00, 1016.3,   89.1, -999.0
14-04-2022, 00:36:28,    232,    0.0,    7.6,   0.00,   0.00, 1016.3,   89.2, -999.0
14-04-2022, 00:36:38,    232,    0.0,    7.6,   0.00,   0.00, 1016.3,   89.1, -999.0
14-04-2022, 00:36:48,    232,    0.0,    7.6,   0.00,   0.00, 1016.4,   89.1, -999.0
14-04-2022, 00:36:58,    232,    0.0,    7.5,   0.00,   0.00, 1016.3,   89.1, -999.0
14-04-2022, 00:37:08,    232,    0.0,    7.5,   0.00,   0.00, 1016.3,   89.1, -999.0
14-04-2022, 00:37:18,    232,    0.0,    7.6,   0.00,   0.00, 1016.3,   89.2, -999.0
14-04-2022, 00:37:28,    232,    0.0,    7.6,   0.00,   0.00, 1016.4,   89.2, -999.0
14-04-2022, 00:37:38,    232,    0.0,    7.5,   0.00,   0.00, 1016.4,   89.0, -999.0
14-04-2022, 00:37:47,    232,    0.0,    7.5,   0.00,   0.00, 1016.4,   89.1, -999.0
14-04-2022, 00:37:58,    232,    0.0,    7.5,   0.00,   0.00, 1016.4,   89.0, -999.0
14-04-2022, 00:38:08,    232,    0.0,    7.6,   0.00,   0.00, 1016.4,   89.2, -999.0
14-04-2022, 00:38:17,    232,    0.0,    7.6,   0.00,   0.00, 1016.4,   89.2, -999.0
14-04-2022, 00:38:27,    233,    0.0,    7.6,   0.00,   0.00, 1016.4,   89.1, -999.0
14-04-2022, 00:38:38,    232,    0.0,    7.5,   0.00,   0.00, 1016.4,   89.1, -999.0
14-04-2022, 00:38:47,    232,    0.0,    7.6,   0.00,   0.00, 1016.4,   89.2, -999.0
14-04-2022, 00:38:57,    232,    0.0,    7.5,   0.00,   0.00, 1016.4,   89.1, -999.0
14-04-2022, 00:39:08,    232,    0.0,    7.5,   0.00,   0.00, 1016.4,   89.2, -999.0
14-04-2022, 00:39:17,    232,    0.0,    7.5,   0.00,   0.00, 1016.4,   89.1, -999.0
14-04-2022, 00:39:27,    233,    0.0,    7.5,   0.00,   0.00, 1016.4,   89.1, -999.0
14-04-2022, 00:39:37,    232,    0.0,    7.4,   0.00,   0.00, 1016.4,   89.2, -999.0
14-04-2022, 00:39:47,    232,    0.0,    7.5,   0.00,   0.00, 1016.4,   89.2, -999.0
14-04-2022, 00:39:57,    232,    0.0,    7.5,   0.00,   0.00, 1016.4,   89.3, -999.0
14-04-2022, 00:40:07,    232,    0.0,    7.5,   0.00,   0.00, 1016.4,   89.3, -999.0
14-04-2022, 00:40:17,    232,    0.0,    7.6,   0.00,   0.00, 1016.4,   89.2, -999.0
14-04-2022, 00:40:27,    232,    0.0,    7.6,   0.00,   0.00, 1016.4,   89.2, -999.0
14-04-2022, 00:40:37,    232,    0.0,    7.6,   0.00,   0.00, 1016.4,   89.2, -999.0
14-04-2022, 00:40:47,    232,    0.0,    7.6,   0.00,   0.00, 1016.4,   89.2, -999.0
14-04-2022, 00:40:57,    232,    0.0,    7.6,   0.00,   0.00, 1016.4,   89.3, -999.0
14-04-2022, 00:41:07,    232,    0.0,    7.5,   0.00,   0.00, 1016.4,   89.3, -999.0
14-04-2022, 00:41:17,    232,    0.0,    7.5,   0.00,   0.00, 1016.4,   89.2, -999.0
14-04-2022, 00:41:27,    232,    0.0,    7.5,   0.00,   0.00, 1016.4,   89.2, -999.0
14-04-2022, 00:41:37,    232,    0.0,    7.5,   0.00,   0.00, 1016.4,   89.2, -999.0
14-04-2022, 00:41:47,    232,    0.0,    7.5,   0.00,   0.00, 1016.4,   89.3, -999.0
14-04-2022, 00:41:56,    232,    0.0,    7.5,   0.00,   0.00, 1016.4,   89.3, -999.0
14-04-2022, 00:42:06,    233,    0.0,    7.5,   0.00,   0.00, 1016.4,   89.3, -999.0
14-04-2022, 00:42:17,    232,    0.0,    7.5,   0.00,   0.00, 1016.4,   89.3, -999.0
14-04-2022, 00:42:26,    232,    0.0,    7.5,   0.00,   0.00, 1016.4,   89.3, -999.0
14-04-2022, 00:42:36,    232,    0.0,    7.5,   0.00,   0.00, 1016.4,   89.3, -999.0
14-04-2022, 00:42:46,    232,    0.0,    7.5,   0.00,   0.00, 1016.4,   89.3, -999.0
14-04-2022, 00:42:56,    233,    0.0,    7.5,   0.00,   0.00, 1016.4,   89.3, -999.0
14-04-2022, 00:43:06,    232,    0.0,    7.5,   0.00,   0.00, 1016.4,   89.3, -999.0
14-04-2022, 00:43:16,    232,    0.0,    7.5,   0.00,   0.00, 1016.4,   89.3, -999.0
14-04-2022, 00:43:26,    232,    0.0,    7.5,   0.00,   0.00, 1016.4,   89.3, -999.0
14-04-2022, 00:43:36,    233,    0.0,    7.5,   0.00,   0.00, 1016.4,   89.3, -999.0
14-04-2022, 00:43:46,    232,    0.0,    7.5,   0.00,   0.00, 1016.4,   89.3, -999.0
14-04-2022, 00:43:56,    232,    0.0,    7.4,   0.00,   0.00, 1016.4,   89.3, -999.0
14-04-2022, 00:44:06,    232,    0.0,    7.4,   0.00,   0.00, 1016.4,   89.5, -999.0
14-04-2022, 00:44:16,    232,    0.0,    7.4,   0.00,   0.00, 1016.4,   89.3, -999.0
14-04-2022, 00:44:26,    232,    0.0,    7.4,   0.00,   0.00, 1016.4,   89.3, -999.0
14-04-2022, 00:44:36,    232,    0.0,    7.4,   0.00,   0.00, 1016.4,   89.3, -999.0
14-04-2022, 00:44:46,    232,    0.0,    7.4,   0.00,   0.00, 1016.4,   89.3, -999.0
14-04-2022, 00:44:56,    232,    0.0,    7.4,   0.00,   0.00, 1016.4,   89.3, -999.0
14-04-2022, 00:45:06,    234,    0.0,    7.4,   0.00,   0.00, 1016.4,   89.3, -999.0
14-04-2022, 00:45:15,    232,    0.0,    7.4,   0.00,   0.00, 1016.4,   89.3, -999.0
14-04-2022, 00:45:26,    232,    0.0,    7.4,   0.00,   0.00, 1016.4,   89.3, -999.0
14-04-2022, 00:45:35,    232,    0.0,    7.4,   0.00,   0.00, 1016.4,   89.3, -999.0
14-04-2022, 00:45:45,    233,    0.0,    7.4,   0.00,   0.00, 1016.4,   89.3, -999.0
14-04-2022, 00:45:55,    232,    0.0,    7.4,   0.00,   0.00, 1016.5,   89.3, -999.0
14-04-2022, 00:46:05,    232,    0.0,    7.3,   0.00,   0.00, 1016.4,   89.3, -999.0
14-04-2022, 00:46:15,    232,    0.0,    7.3,   0.00,   0.00, 1016.4,   89.4, -999.0
14-04-2022, 00:46:25,    233,    0.0,    7.4,   0.00,   0.00, 1016.4,   89.4, -999.0
14-04-2022, 00:46:35,    233,    0.0,    7.3,   0.00,   0.00, 1016.4,   89.3, -999.0
14-04-2022, 00:46:45,    232,    0.0,    7.3,   0.00,   0.00, 1016.5,   89.3, -999.0